Vorticity
12 10 11 11 9 14 16 15 14 8 5 1 1 4 9 12 6 4 4 6 8 10 12 4 8 11 -5 2 19 17 16 15 7 7 10 11 13 14 11 8 10 11 9 8 7 5 4 4 4 7 7 3
15 13 11 11 11 10 11 17 18 14 13 6 5 11 11 8 4 3 4 7 4 3 6 -1 4 4 -10 2 18 11 13 20 20 16 11 16 23 21 17 11 7 10 12 11 9 5 3 3 3 4 6 6
14 14 13 11 11 12 9 12 19 22 19 10 9 8 4 5 4 4 4 4 2 2 3 -3 1 7 1 1 9 10 7 6 23 32 14 11 21 20 25 23 12 12 15 13 11 10 9 6 4 2 2 5
11 12 12 12 10 12 11 12 20 21 20 22 22 14 8 11 7 1 1 3 3 1 3 3 -4 -6 -4 -3 -0 4 1 -7 8 28 4 -13 2 12 21 22 13 12 18 20 16 13 13 12 8 5 4 2
10 11 9 10 8 9 9 14 21 15 12 13 16 24 26 18 6 6 7 5 12 12 3 0 -2 -1 5 9 9 2 -0 -6 -8 7 1 -10 -3 2 10 17 18 13 9 15 17 15 13 12 12 10 10 6
8 11 11 10 7 8 5 10 22 17 -2 -17 -7 14 26 17 4 22 33 11 10 20 10 6 10 10 6 5 10 6 4 5 0 -1 -2 0 -3 -5 3 7 16 20 14 10 9 12 13 11 12 12 12 10
7 8 12 12 8 8 4 3 17 21 -1 -16 -1 7 8 11 1 13 32 17 8 15 13 14 16 12 12 10 7 6 4 6 12 11 6 7 3 2 6 4 6 12 15 15 10 13 15 12 11 12 12 9
6 7 8 12 11 10 7 2 7 16 7 -9 -7 -4 -4 2 -1 -1 7 10 12 15 10 8 14 15 15 12 7 8 9 5 7 12 14 14 12 10 9 8 7 4 6 10 11 17 21 20 13 10 12 9
6 6 6 8 10 11 10 6 2 8 14 3 -12 -11 -4 -4 -5 -3 -1 3 2 8 14 10 7 8 8 11 13 11 6 1 -4 -3 5 11 11 11 12 11 8 7 7 7 7 9 15 21 20 15 10 7
5 6 6 6 7 9 12 10 6 3 9 12 3 -3 -1 -0 -1 -4 -2 5 -0 -4 7 13 12 14 16 15 16 17 14 9 2 -4 2 9 9 5 8 10 9 7 6 9 9 5 6 13 21 22 14 5
4 5 5 6 6 6 8 10 10 7 6 9 9 5 1 3 7 5 -1 -0 3 -2 -5 -2 1 8 14 12 12 14 17 19 15 11 8 9 8 4 5 7 9 7 2 3 7 7 5 5 11 18 19 14
4 5 5 5 6 6 5 7 8 9 9 8 8 5 5 5 2 3 6 2 2 4 3 -2 -9 -6 -1 1 9 12 12 14 16 17 16 12 10 8 7 6 7 8 5 1 1 5 6 3 4 10 16 22
4 4 5 5 5 6 5 6 6 7 7 8 10 6 8 13 5 -1 5 10 8 4 6 5 -0 2 0 -10 -4 7 10 12 15 17 19 19 18 16 13 9 6 6 7 5 1 1 6 6 5 7 10 15
5 3 3 4 5 5 5 5 5 6 6 6 8 8 6 10 11 4 -4 -1 10 12 9 7 2 3 6 1 -6 -5 0 6 9 11 14 18 18 19 19 15 11 10 10 10 7 2 4 7 5 6 6 6
5 4 3 3 4 4 5 5 5 5 6 6 5 7 8 6 9 9 -1 -9 -3 7 10 9 4 -1 2 7 3 -3 -3 -5 -4 -0 5 9 11 13 14 13 12 12 13 11 9 6 4 6 7 5 6 6
5 5 4 3 3 3 4 4 4 4 4 6 6 6 7 7 7 9 9 1 -5 -3 4 6 5 3 1 2 6 9 9 6 4 -3 -5 2 11 17 15 13 12 11 11 9 7 7 6 6 8 7 5 5
7 5 5 4 3 2 4 4 4 5 4 4 5 6 7 8 8 8 9 9 5 0 1 4 6 7 6 4 4 5 9 14 15 7 4 12 14 16 20 19 18 16 13 12 9 9 10 8 7 8 8 5
7 7 6 5 5 3 2 3 3 4 4 3 3 4 5 7 9 9 8 8 9 8 5 5 6 8 10 9 4 7 4 -5 5 16 10 7 3 1 7 9 11 16 16 17 15 12 11 10 9 8 7 6
4 6 7 6 6 5 3 3 3 3 4 4 3 4 4 4 6 8 9 8 8 10 10 8 5 3 9 11 5 13 11 -10 -1 16 4 1 8 8 5 2 3 7 9 12 15 16 14 13 11 11 9 6
4 4 5 7 7 6 6 4 4 3 4 4 3 3 3 3 4 6 7 8 9 9 9 10 6 -2 2 8 1 2 8 -2 -6 -3 -3 4 9 8 9 7 3 3 6 7 8 11 13 14 13 12 12 8
5 5 4 5 6 6 6 6 5 5 4 4 4 3 3 3 3 5 5 6 8 9 9 10 9 2 -1 3 2 -0 2 3 -6 -17 -9 7 8 6 5 7 7 4 7 9 9 9 8 10 12 13 15 14
6 7 6 5 5 5 6 6 6 5 5 4 5 4 4 3 3 3 5 6 6 7 8 9 11 10 8 6 4 1 -1 3 6 -5 -11 -7 1 8 2 1 10 9 8 11 11 12 10 9 10 9 11 13
7 7 6 7 6 6 6 7 7 6 6 5 5 5 5 5 4 2 2 4 6 6 7 9 9 7 11 14 9 4 2 2 9 9 2 -5 -4 7 8 -0 7 12 10 13 14 11 11 10 9 8 8 9
10 9 8 7 7 7 6 6 7 7 7 6 5 5 5 6 6 4 2 2 3 4 5 7 8 5 5 9 11 14 11 1 -2 0 6 12 9 12 16 7 6 11 8 11 13 9 11 12 10 10 10 10
11 12 13 12 9 8 7 6 5 6 7 7 7 6 5 5 6 6 5 3 2 3 4 4 6 8 5 3 4 9 9 5 1 -5 -9 -1 2 2 11 9 4 7 8 10 11 10 14 17 16 13 8 7
9 9 11 13 14 13 11 10 8 7 7 6 7 7 6 5 5 7 7 6 5 2 2 3 3 6 8 7 5 4 7 10 9 7 -3 -10 -8 -7 -3 2 1 2 4 4 8 13 12 7 7 9 7 5
7 6 6 6 10 12 13 14 13 12 11 9 8 6 7 7 6 6 8 11 12 7 3 4 4 4 5 5 7 8 10 12 9 10 7 -3 -6 -5 -9 -7 -0 5 3 -2 1 6 5 2 1 2 4 5
6 6 6 4 3 4 7 9 11 12 13 14 13 10 7 6 7 7 7 10 12 8 6 7 6 5 3 2 5 6 6 9 9 7 11 7 -0 -1 -5 -9 -6 3 7 1 1 5 3 2 3 4 6 6
6 6 6 6 5 3 3 4 5 7 9 10 13 14 13 8 6 6 6 8 7 5 7 13 19 18 10 3 3 6 3 6 9 6 8 9 5 6 6 -1 -6 -2 4 2 -1 4 6 1 1 6 5 1
8 8 7 7 7 7 6 5 3 2 3 6 7 10 13 13 10 7 5 6 6 7 9 14 21 21 14 10 9 9 5 2 6 8 5 1 2 9 12 9 3 -5 -6 -3 -5 -4 3 2 -2 -1 -1 -3
10 10 10 9 9 8 8 8 7 5 3 4 6 7 10 12 13 11 8 6 4 5 7 11 12 4 -2 5 12 13 14 10 4 5 6 3 3 6 7 7 8 2 -7 -9 -8 -6 1 4 -2 -6 -2 2
Height
5735 5735 5735 5735 5733 5732 5733 5733 5733 5734 5736 5738 5738 5737 5738 5738 5738 5738 5740 5741 5741 5741 5742 5742 5743 5742 5741 5742 5744 5745 5745 5745 5745 5746 5747 5750 5751 5753 5754 5755 5757 5758 5760 5762 5763 5765 5766 5768 5771 5771 5772 5775
5731 5731 5731 5731 5729 5728 5729 5729 5729 5731 5733 5735 5735 5734 5734 5735 5736 5736 5737 5737 5737 5738 5739 5739 5738 5738 5737 5739 5740 5741 5742 5742 5743 5743 5743 5745 5746 5747 5749 5750 5751 5753 5755 5756 5758 5760 5761 5763 5765 5766 5767 5770
5728 5728 5728 5728 5727 5725 5725 5726 5727 5729 5731 5732 5732 5731 5730 5732 5732 5732 5732 5733 5733 5735 5736 5735 5733 5733 5734 5735 5736 5737 5737 5738 5740 5740 5740 5741 5742 5742 5744 5745 5746 5748 5749 5751 5752 5754 5756 5757 5758 5760 5762 5764
5724 5724 5723 5724 5724 5723 5721 5722 5725 5727 5729 5728 5727 5726 5726 5727 5729 5728 5728 5729 5730 5731 5731 5730 5729 5729 5729 5730 5731 5732 5733 5733 5735 5736 5736 5737 5738 5739 5740 5741 5741 5742 5744 5745 5747 5748 5750 5751 5752 5755 5757 5759
5720 5720 5719 5719 5720 5720 5719 5719 5722 5724 5726 5724 5722 5722 5722 5723 5725 5724 5724 5725 5725 5725 5725 5725 5724 5725 5724 5725 5726 5727 5728 5729 5730 5731 5731 5731 5732 5734 5736 5737 5737 5738 5739 5740 5742 5743 5745 5746 5747 5750 5752 5753
5717 5717 5716 5715 5715 5716 5716 5716 5718 5720 5720 5718 5717 5718 5718 5718 5719 5719 5720 5720 5719 5719 5719 5719 5719 5720 5720 5720 5721 5722 5723 5724 5725 5726 5726 5726 5727 5729 5730 5732 5733 5734 5735 5736 5737 5739 5740 5741 5742 5744 5746 5748
5714 5714 5713 5712 5711 5711 5712 5712 5714 5715 5715 5714 5712 5713 5713 5713 5712 5712 5713 5714 5714 5714 5714 5714 5714 5714 5715 5715 5716 5718 5719 5719 5720 5721 5721 5722 5723 5724 5725 5728 5729 5730 5731 5732 5733 5735 5736 5737 5738 5739 5741 5743
5712 5711 5710 5709 5708 5707 5709 5709 5709 5710 5710 5709 5708 5708 5709 5708 5707 5707 5707 5708 5708 5709 5708 5708 5709 5709 5710 5710 5711 5712 5714 5714 5715 5715 5716 5718 5719 5720 5721 5723 5725 5726 5726 5727 5729 5730 5731 5731 5733 5734 5736 5737
5708 5708 5707 5706 5705 5704 5704 5705 5704 5705 5706 5705 5704 5704 5704 5704 5703 5702 5702 5702 5703 5703 5703 5703 5704 5705 5705 5706 5706 5706 5708 5709 5710 5710 5712 5713 5715 5716 5716 5718 5720 5721 5722 5723 5724 5725 5726 5726 5728 5730 5730 5732
5704 5704 5703 5702 5702 5701 5700 5700 5700 5700 5701 5700 5700 5700 5700 5700 5700 5699 5698 5697 5698 5698 5698 5699 5699 5700 5700 5700 5700 5701 5702 5704 5705 5706 5707 5708 5710 5711 5712 5713 5714 5715 5717 5718 5719 5720 5721 5722 5723 5724 5725 5726
5700 5700 5699 5698 5698 5697 5696 5696 5695 5695 5696 5695 5696 5696 5696 5696 5696 5695 5693 5693 5693 5693 5694 5695 5695 5695 5695 5695 5695 5696 5697 5698 5699 5700 5701 5702 5704 5705 5706 5708 5709 5710 5711 5713 5714 5715 5716 5717 5718 5719 5720 5721
5696 5695 5695 5694 5693 5693 5692 5692 5691 5690 5691 5690 5691 5692 5691 5691 5691 5690 5690 5689 5688 5689 5689 5690 5690 5691 5690 5690 5691 5692 5692 5693 5694 5694 5695 5697 5698 5699 5700 5702 5704 5705 5706 5707 5709 5710 5711 5712 5713 5714 5715 5716
5691 5691 5690 5690 5689 5688 5687 5687 5687 5686 5685 5684 5685 5686 5685 5684 5685 5686 5686 5685 5683 5683 5684 5684 5685 5686 5686 5686 5686 5687 5688 5688 5689 5689 5690 5691 5692 5693 5694 5696 5698 5699 5701 5702 5704 5705 5706 5707 5708 5709 5710 5711
5686 5686 5685 5685 5684 5683 5682 5682 5681 5681 5681 5679 5679 5680 5680 5678 5679 5680 5681 5680 5678 5678 5678 5679 5680 5681 5681 5681 5681 5682 5683 5684 5684 5685 5685 5686 5687 5688 5688 5689 5691 5693 5695 5697 5698 5700 5701 5702 5703 5704 5705 5706
5680 5680 5680 5680 5679 5678 5677 5677 5676 5676 5676 5675 5674 5673 5674 5673 5673 5673 5673 5673 5673 5672 5673 5674 5675 5676 5676 5676 5677 5677 5678 5679 5680 5680 5681 5682 5683 5683 5684 5684 5685 5687 5688 5690 5692 5693 5695 5697 5698 5699 5700 5701
5674 5673 5673 5673 5673 5672 5672 5671 5670 5671 5671 5670 5669 5668 5668 5668 5668 5667 5667 5666 5666 5667 5667 5668 5669 5671 5671 5672 5672 5673 5673 5675 5676 5676 5676 5677 5678 5678 5679 5680 5680 5681 5682 5684 5686 5687 5689 5691 5692 5694 5695 5696
5669 5668 5667 5666 5666 5667 5666 5665 5664 5664 5665 5664 5664 5663 5662 5662 5662 5662 5661 5661 5660 5660 5661 5662 5663 5665 5666 5667 5668 5668 5669 5669 5671 5672 5672 5672 5673 5673 5674 5675 5675 5676 5677 5678 5679 5681 5683 5685 5686 5688 5690 5691
5664 5663 5662 5660 5659 5660 5660 5659 5658 5657 5658 5659 5658 5657 5657 5656 5656 5656 5656 5656 5655 5655 5656 5657 5657 5658 5659 5660 5662 5663 5664 5664 5665 5666 5667 5667 5667 5668 5669 5669 5670 5671 5672 5673 5674 5675 5677 5678 5680 5683 5685 5686
5658 5657 5656 5655 5653 5652 5652 5652 5652 5651 5651 5651 5652 5652 5651 5651 5650 5650 5650 5650 5651 5651 5651 5652 5652 5653 5653 5654 5656 5658 5659 5660 5660 5660 5660 5660 5661 5662 5663 5664 5665 5666 5667 5668 5668 5669 5671 5672 5674 5676 5679 5680
5650 5650 5650 5649 5648 5646 5644 5645 5645 5644 5644 5643 5644 5645 5645 5644 5644 5643 5644 5644 5645 5645 5646 5646 5645 5646 5647 5648 5650 5651 5652 5653 5654 5654 5653 5654 5655 5656 5657 5657 5658 5660 5661 5662 5663 5664 5665 5667 5668 5670 5672 5674
5640 5641 5641 5641 5641 5640 5638 5637 5637 5637 5636 5635 5636 5637 5637 5637 5637 5637 5637 5637 5638 5639 5639 5639 5639 5640 5641 5641 5643 5644 5645 5646 5647 5648 5648 5649 5649 5650 5651 5651 5652 5653 5654 5656 5658 5659 5660 5661 5663 5664 5666 5668
5631 5631 5631 5632 5632 5633 5632 5630 5629 5629 5629 5628 5628 5629 5629 5630 5630 5630 5630 5630 5631 5632 5632 5633 5633 5633 5634 5635 5636 5637 5638 5640 5641 5642 5643 5643 5643 5644 5644 5645 5646 5647 5648 5650 5651 5653 5654 5656 5657 5659 5660 5662
5622 5622 5622 5622 5622 5623 5623 5623 5622 5621 5620 5620 5620 5620 5620 5621 5621 5622 5622 5622 5623 5624 5624 5625 5626 5626 5627 5628 5628 5630 5632 5634 5635 5635 5636 5637 5637 5637 5638 5639 5640 5640 5641 5643 5644 5646 5648 5649 5651 5652 5654 5655
5612 5612 5612 5612 5612 5612 5613 5613 5614 5613 5612 5612 5612 5611 5612 5612 5612 5613 5614 5614 5614 5615 5616 5617 5618 5619 5619 5620 5621 5623 5624 5627 5628 5629 5629 5630 5630 5631 5632 5633 5634 5635 5634 5636 5638 5639 5641 5642 5643 5645 5647 5649
5603 5602 5602 5602 5602 5602 5602 5603 5604 5604 5604 5603 5603 5603 5603 5603 5603 5603 5605 5606 5606 5607 5607 5609 5610 5611 5611 5612 5613 5615 5616 5618 5620 5621 5622 5623 5623 5624 5625 5627 5628 5628 5628 5629 5631 5633 5634 5635 5636 5637 5639 5642
5593 5593 5592 5592 5592 5592 5592 5592 5593 5593 5594 5594 5594 5594 5593 5594 5594 5594 5595 5596 5597 5598 5599 5600 5601 5602 5603 5604 5605 5607 5608 5609 5611 5613 5614 5615 5616 5617 5618 5620 5621 5621 5622 5623 5625 5626 5627 5628 5629 5630 5632 5635
5583 5583 5582 5582 5582 5582 5581 5581 5581 5582 5583 5584 5584 5584 5584 5584 5585 5585 5586 5587 5587 5588 5590 5591 5591 5593 5594 5595 5596 5598 5599 5601 5602 5604 5604 5605 5607 5609 5612 5613 5613 5615 5615 5616 5618 5618 5619 5621 5622 5623 5626 5628
5573 5572 5572 5572 5571 5572 5571 5571 5571 5571 5571 5572 5573 5574 5574 5575 5575 5575 5576 5577 5577 5577 5580 5582 5581 5582 5584 5586 5587 5589 5590 5591 5593 5594 5595 5596 5597 5600 5604 5606 5607 5608 5608 5609 5610 5610 5611 5613 5614 5617 5620 5621
5561 5561 5561 5561 5560 5560 5560 5560 5561 5560 5560 5561 5562 5563 5563 5564 5565 5565 5566 5567 5568 5567 5570 5572 5571 5571 5574 5576 5577 5579 5580 5581 5583 5585 5586 5586 5587 5591 5595 5597 5599 5601 5602 5603 5603 5603 5604 5605 5607 5610 5612 5612
5550 5550 5550 5550 5549 5549 5549 5549 5549 5550 5549 5549 5550 5551 5552 5553 5554 5555 5556 5557 5557 5557 5560 5563 5563 5562 5563 5565 5567 5568 5570 5571 5573 5575 5576 5576 5578 5581 5584 5587 5590 5592 5594 5595 5596 5596 5597 5598 5599 5602 5603 5603
5538 5538 5538 5538 5538 5538 5537 5537 5537 5538 5538 5538 5538 5539 5540 5541 5542 5544 5545 5546 5547 5547 5549 5552 5555 5554 5553 5556 5558 5559 5559 5561 5562 5564 5565 5566 5568 5571 5573 5576 5580 5582 5584 5586 5588 5589 5590 5591 5592 5594 5595 5596